KB0OLA Weather Reports


time (UTC)temp
C
wind
direction
speed
KPH
gust
KPH
rain 1hr
cm
rain 24hr
cm
rain mn
cm
humidity
%
barometer
mb
20260502180517 19 225 4.8 14.5 0.00 0.00 0.00 23 1021.0
20260502170516 17 293 4.8 9.7 0.00 0.00 0.00 23 1021.1
20260502163516 16 0.0 0.0 0.00 0.00 0.00 30 1021.2
20260502162516 15 0.0 0.0 0.00 0.00 0.00 30 1021.1
20260502161516 15 0.0 0.0 0.00 0.00 0.00 32 1021.2
20260502160516 14 0.0 0.0 0.00 0.00 0.00 30 1021.2
20260502151516 11 0.0 0.0 0.00 0.00 0.00 35 1021.3
20260502150518 11 0.0 0.0 0.00 0.00 0.00 37 1021.3
20260502130518 2 0.0 3.2 0.00 0.00 0.00 58 1020.8
20260502123518 2 0.0 0.0 0.00 0.00 0.00 59 1020.7
20260502122517 2 0.0 0.0 0.00 0.00 0.00 59 1020.6
20260502121538 2 0.0 0.0 0.00 0.00 0.00 59 1020.6
20260502120538 2 0.0 0.0 0.00 0.00 0.00 59 1020.6
20260502115538 3 0.0 0.0 0.00 0.00 0.00 58 1020.6
20260502114517 3 0.0 0.0 0.00 0.00 0.00 57 1020.6
20260502113558 3 0.0 0.0 0.00 0.00 0.00 57 1020.7
20260502112518 3 0.0 0.0 0.00 0.00 0.00 57 1020.7
20260502111517 3 0.0 0.0 0.00 0.00 0.00 57 1020.7
20260502110518 3 270 1.6 4.8 0.00 0.00 0.00 57 1020.8
20260502105518 4 270 1.6 6.4 0.00 0.00 0.00 57 1020.8
20260502104517 4 270 1.6 4.8 0.00 0.00 0.00 57 1020.8
20260502103517 4 270 1.6 4.8 0.00 0.00 0.00 57 1020.7
20260502102517 5 0.0 3.2 0.00 0.00 0.00 58 1020.7
20260502101517 5 0.0 1.6 0.00 0.00 0.00 58 1020.6
20260502100517 5 270 3.2 6.4 0.00 0.00 0.00 59 1020.5
20260502091517 5 0.0 0.0 0.00 0.00 0.00 58 1020.6
20260502090517 5 0.0 0.0 0.00 0.00 0.00 59 1020.6
20260502071517 5 0.0 0.0 0.00 0.00 0.00 56 1020.3
20260502070517 5 0.0 0.0 0.00 0.00 0.00 56 1020.3
20260502065557 6 0.0 0.0 0.00 0.00 0.00 55 1020.4
20260502064516 6 0.0 0.0 0.00 0.00 0.00 54 1020.4
20260502063516 6 0.0 0.0 0.00 0.00 0.00 53 1020.3
20260502062517 6 0.0 0.0 0.00 0.00 0.00 53 1020.4
20260502061517 6 0.0 0.0 0.00 0.00 0.00 55 1020.4
20260502060517 6 0.0 0.0 0.00 0.00 0.00 55 1020.3
20260502055537 6 0.0 0.0 0.00 0.00 0.00 55 1020.3
20260502054517 6 0.0 0.0 0.00 0.00 0.00 54 1020.3
20260502053517 6 0.0 0.0 0.00 0.00 0.00 55 1020.2
20260502052517 6 0.0 0.0 0.00 0.00 0.00 54 1020.2
20260502051517 6 0.0 0.0 0.00 0.00 0.00 55 1020.2
20260502050517 7 0.0 0.0 0.00 0.00 0.00 54 1020.2
20260502045537 7 0.0 0.0 0.00 0.00 0.00 54 1020.2
20260502044516 7 0.0 0.0 0.00 0.00 0.00 54 1020.2
20260502043517 7 248 1.6 3.2 0.00 0.00 0.00 54 1020.1
20260502042517 7 248 1.6 3.2 0.00 0.00 0.00 55 1020.1
20260502041516 7 248 1.6 3.2 0.00 0.00 0.00 52 1020.1
20260502040517 8 0.0 0.0 0.00 0.00 0.00 52 1020.0
20260502035516 8 0.0 0.0 0.00 0.00 0.00 50 1019.9
20260502034516 9 0.0 0.0 0.00 0.00 0.00 48 1019.7
20260502033517 10 0.0 1.6 0.00 0.00 0.00 46 1019.7
20260502032537 11 0.0 0.0 0.00 0.00 0.00 42 1019.5
20260502031516 11 0.0 1.6 0.00 0.00 0.00 41 1019.4
20260502030537 12 248 1.6 3.2 0.00 0.00 0.00 40 1019.2
20260502025517 12 0.0 0.0 0.00 0.00 0.00 37 1019.2
20260502024516 13 0.0 1.6 0.00 0.00 0.00 35 1019.1
20260502023536 13 0.0 3.2 0.00 0.00 0.00 33 1019.0
20260502022516 14 0.0 3.2 0.00 0.00 0.00 32 1018.9
20260502021516 15 248 3.2 8.0 0.00 0.00 0.00 32 1018.8
20260502020516 15 248 4.8 11.3 0.00 0.00 0.00 31 1018.7
20260502015518 15 248 6.4 16.1 0.00 0.00 0.00 30 1018.7
20260502014518 16 248 8.0 14.5 0.00 0.00 0.00 31 1018.6
20260502013518 16 270 8.0 17.7 0.00 0.00 0.00 31 1018.5
20260502012518 16 248 8.0 16.1 0.00 0.00 0.00 32 1018.4
20260502011518 17 270 6.4 12.9 0.00 0.00 0.00 30 1018.4
20260502010518 17 293 9.7 20.9 0.00 0.00 0.00 31 1018.4
20260502005518 18 293 9.7 17.7 0.00 0.00 0.00 24 1018.4
20260502004518 18 293 8.0 16.1 0.00 0.00 0.00 24 1018.4
20260502003518 18 293 8.0 19.3 0.00 0.00 0.00 24 1018.4
20260502002518 18 315 6.4 12.9 0.00 0.00 0.00 24 1018.5
20260502001523 18 315 9.7 19.3 0.00 0.00 0.00 24 1018.5
20260502000518 18 0 8.0 16.1 0.00 0.00 0.00 24 1018.6
20260501235518 18 270 6.4 12.9 0.00 0.00 0.00 24 1018.6
20260501234538 18 293 11.3 16.1 0.00 0.00 0.00 25 1018.6
20260501233518 18 315 11.3 20.9 0.00 0.00 0.00 24 1018.7
20260501232538 18 270 9.7 17.7 0.00 0.00 0.00 26 1018.6
20260501231518 18 293 12.9 24.1 0.00 0.00 0.00 25 1018.8
20260501230518 18 270 9.7 22.5 0.00 0.00 0.00 26 1018.8
20260501225518 18 315 12.9 25.7 0.00 0.00 0.00 25 1018.9
20260501224518 18 315 14.5 29.0 0.00 0.00 0.00 25 1018.9
20260501223518 18 270 12.9 24.1 0.00 0.00 0.00 26 1019.0
20260501222517 18 293 12.9 27.4 0.00 0.00 0.00 26 1019.1
20260501221518 18 270 12.9 27.4 0.00 0.00 0.00 26 1019.2
20260501220518 18 293 12.9 25.7 0.00 0.00 0.00 27 1019.3
20260501215518 18 293 12.9 27.4 0.00 0.00 0.00 28 1019.4
20260501214538 18 293 16.1 32.2 0.00 0.00 0.00 27 1019.4
20260501213518 18 293 14.5 25.7 0.00 0.00 0.00 27 1019.4
20260501212517 18 293 12.9 24.1 0.00 0.00 0.00 29 1019.6
20260501211517 17 270 11.3 25.7 0.00 0.00 0.00 28 1019.6
20260501210517 17 293 12.9 24.1 0.00 0.00 0.00 28 1019.7
20260501205518 18 293 12.9 27.4 0.00 0.00 0.00 28 1019.7
20260501204517 18 270 11.3 24.1 0.00 0.00 0.00 29 1019.8
20260501203558 17 248 11.3 24.1 0.00 0.00 0.00 27 1019.7
20260501202538 17 293 11.3 19.3 0.00 0.00 0.00 29 1019.8
20260501201518 17 270 9.7 17.7 0.00 0.00 0.00 28 1019.8
20260501200517 17 270 9.7 16.1 0.00 0.00 0.00 28 1019.9
20260501195537 17 248 11.3 17.7 0.00 0.00 0.00 29 1019.9
20260501194517 17 270 8.0 16.1 0.00 0.00 0.00 30 1020.0
20260501193517 17 203 8.0 16.1 0.00 0.00 0.00 29 1020.1
20260501192557 17 338 6.4 12.9 0.00 0.00 0.00 21 1020.2
20260501191537 17 158 11.3 20.9 0.00 0.00 0.00 25 1020.2
20260501190537 16 293 1.6 9.7 0.00 0.00 0.00 22 1020.4
20260501185517 16 23 1.6 9.7 0.00 0.00 0.00 22 1020.5
20260501184518 16 0.0 4.8 0.00 0.00 0.00 24 1020.6
20260501183517 16 338 3.2 9.7 0.00 0.00 0.00 21 1020.8
20260501182537 16 113 1.6 6.4 0.00 0.00 0.00 25 1020.8
20260501181517 16 158 8.0 17.7 0.00 0.00 0.00 29 1020.8